TimeEST,TemperatureF,Dew PointF,Humidity,Sea Level PressureIn,VisibilityMPH,Wind Direction,Wind SpeedMPH,Gust SpeedMPH,PrecipitationIn,Events,Conditions,WindDirDegrees,DateUTC
12:51 AM,35.1,21.9,59,30.27,10.0,Calm,Calm,-,N/A,,Overcast,0,2012-11-27 05:51:00
1:51 AM,35.1,21.9,59,30.26,10.0,Calm,Calm,-,N/A,,Overcast,0,2012-11-27 06:51:00
2:51 AM,35.1,21.9,59,30.27,10.0,Calm,Calm,-,N/A,,Overcast,0,2012-11-27 07:51:00
3:51 AM,35.1,21.9,59,30.26,10.0,Calm,Calm,-,N/A,,Overcast,0,2012-11-27 08:51:00
4:51 AM,33.1,25.0,72,30.25,10.0,South,4.6,-,N/A,,Overcast,170,2012-11-27 09:51:00
5:51 AM,33.1,24.1,70,30.26,10.0,Calm,Calm,-,N/A,,Overcast,0,2012-11-27 10:51:00
6:37 AM,33.8,23.0,65,30.24,10.0,North,6.9,-,N/A,,Overcast,10,2012-11-27 11:37:00
6:51 AM,34.0,23.0,64,30.26,10.0,North,4.6,-,N/A,,Overcast,350,2012-11-27 11:51:00
7:51 AM,34.0,23.0,64,30.29,10.0,North,4.6,-,N/A,,Overcast,360,2012-11-27 12:51:00
8:23 AM,35.6,23.0,60,30.28,10.0,Calm,Calm,-,N/A,,Overcast,0,2012-11-27 13:23:00
8:51 AM,35.1,21.9,59,30.31,10.0,North,3.5,-,N/A,,Overcast,10,2012-11-27 13:51:00
9:51 AM,35.1,23.0,61,30.32,10.0,North,5.8,-,N/A,,Overcast,350,2012-11-27 14:51:00
10:51 AM,35.1,23.0,61,30.33,10.0,NW,3.5,-,N/A,,Overcast,320,2012-11-27 15:51:00
11:51 AM,36.0,23.0,59,30.31,10.0,Calm,Calm,-,N/A,,Overcast,0,2012-11-27 16:51:00
12:51 PM,36.0,23.0,59,30.30,10.0,Calm,Calm,-,N/A,,Overcast,0,2012-11-27 17:51:00
1:51 PM,36.0,23.0,59,30.30,10.0,West,4.6,-,N/A,,Overcast,280,2012-11-27 18:51:00
2:51 PM,35.1,24.1,64,30.28,10.0,Variable,4.6,-,N/A,,Overcast,0,2012-11-27 19:51:00
3:09 PM,35.6,24.8,65,30.26,10.0,Calm,Calm,-,N/A,,Overcast,0,2012-11-27 20:09:00
3:16 PM,35.6,24.8,65,30.26,10.0,WNW,3.5,-,N/A,,Overcast,290,2012-11-27 20:16:00
3:51 PM,36.0,24.1,62,30.28,10.0,WSW,3.5,-,N/A,,Overcast,240,2012-11-27 20:51:00
4:51 PM,35.1,23.0,61,30.29,10.0,Calm,Calm,-,N/A,,Overcast,0,2012-11-27 21:51:00
5:51 PM,35.6,23.0,60,30.26,10.0,Calm,Calm,-,N/A,,Overcast,0,2012-11-27 22:51:00
6:17 PM,35.6,24.8,65,30.27,10.0,SSW,5.8,-,N/A,,Overcast,210,2012-11-27 23:17:00
6:44 PM,33.8,24.8,70,30.28,10.0,SW,6.9,-,N/A,,Overcast,220,2012-11-27 23:44:00
6:51 PM,34.0,24.1,67,30.30,10.0,SW,6.9,-,N/A,,Overcast,230,2012-11-27 23:51:00
7:46 PM,33.8,21.2,60,30.27,10.0,SW,5.8,-,N/A,,Overcast,230,2012-11-28 00:46:00
7:51 PM,34.0,21.9,61,30.30,10.0,SW,6.9,-,N/A,,Overcast,220,2012-11-28 00:51:00
8:51 PM,33.8,21.2,60,30.28,10.0,SSW,9.2,-,N/A,,Overcast,210,2012-11-28 01:51:00
9:51 PM,32.0,21.0,64,30.30,10.0,SW,4.6,-,N/A,,Overcast,230,2012-11-28 02:51:00
10:51 PM,30.9,19.9,64,30.30,10.0,SW,5.8,-,N/A,,Overcast,220,2012-11-28 03:51:00
11:51 PM,30.9,21.0,67,30.29,10.0,SSW,5.8,-,N/A,,Overcast,200,2012-11-28 04:51:00